Regional Weather Roundup
Issued by NWS

Home | Current Version | Previous Version | Text Only | Print | Product List | Glossary On
Versions: 1 2 3 4 5 6 7 8 9 10 11 12 13 14 15 16 17 18 19 20 21 22 23 24 25 26 27 28 29 30 31 32 33 34 35 36 37 38 39 40 41 42 43 44 45 46 47 48 49 50
000
ASUS43 KLMK 210710
RWRKY
KENTUCKY REGIONAL WEATHER ROUNDUP
NATIONAL WEATHER SERVICE LOUISVILLE KY
300 AM EDT THU AUG 21 2014

NOTE "FAIR" INDICATES FEW OR NO CLOUDS BELOW 12,000 FEET
WITH NO SIGNIFICANT WEATHER AND/OR OBSTRUCTIONS TO VISIBILITY.

KYZ001>023-026-027-061>063-070>075-210800-
WESTERN AND SOUTH CENTRAL KENTUCKY

CITY           SKY/WX    TMP DP  RH WIND       PRES   REMARKS
PADUCAH        MOCLDY    79  73  82 SW5       30.02F
HENDERSON      CLOUDY    73  68  83 CALM      30.01F
OWENSBORO      MOCLDY    72  67  84 S6        30.03F
HOPKINSVILLE   PTCLDY    71  71 100 S2        30.06F
BOWLING GREEN  PTCLDY    70  67  90 E5        30.07S
GLASGOW        CLEAR     68  68 100 CALM      30.08S
$$

KYZ024-025-028>034-038-045-046-053-210800-
NORTH CENTRAL KENTUCKY

CITY           SKY/WX    TMP DP  RH WIND       PRES   REMARKS
LOUISVILLE/SDF MOCLDY    73  69  87 S5        30.02F
LOUISVILLE/LOU PTCLDY    73  69  87 S3        30.03F
FORT KNOX      CLEAR     70  70 100 S7        30.03F
$$

KYZ035>037-039>044-047>052-055>060-089>105-210800-
NORTHEAST KENTUCKY

CITY           SKY/WX    TMP DP  RH WIND       PRES   REMARKS
LEXINGTON      PTCLDY    70  66  87 CALM      30.07R
COVINGTON      PTCLDY    68  66  93 CALM      30.04S
FRANKFORT      MOCLDY    69  67  93 S3        30.05S
$$

KYZ054-064>069-076>088-106>120-210800-
SOUTHEAST KENTUCKY

CITY           SKY/WX    TMP DP  RH WIND       PRES   REMARKS
JACKSON        MOCLDY    67  65  93 CALM      30.09F
LONDON         MOCLDY    69  65  86 SW5       30.11S
SOMERSET       PTCLDY    68  68 100 CALM      30.10S
MIDDLESBORO    MOCLDY    65  65 100 CALM      30.12S
MONTICELLO     MOSUNNY   70  67  90 S6        30.10F
$$




USA.gov is the U.S. government's official web portal to all federal, state and local government web resources and services.